TimeCST,TemperatureF,Dew PointF,Humidity,Sea Level PressureIn,VisibilityMPH,Wind Direction,Wind SpeedMPH,Gust SpeedMPH,PrecipitationIn,Events,Conditions,WindDirDegrees,DateUTC
12:23 AM,64.4,51.8,64,29.73,10.0,West,13.8,-,N/A,,Mostly Cloudy,260,2012-11-11 06:23:00
12:53 AM,63.0,52.0,67,29.69,10.0,West,15.0,20.7,N/A,,Overcast,280,2012-11-11 06:53:00
1:53 AM,55.9,48.0,75,29.71,9.0,NW,10.4,-,0.02,Rain,Light Rain,320,2012-11-11 07:53:00
2:27 AM,55.4,46.4,72,29.77,7.0,Calm,Calm,-,0.04,Rain-Thunderstorm,Thunderstorms and Rain,0,2012-11-11 08:27:00
2:41 AM,53.6,46.4,77,29.80,4.0,Variable,3.5,-,0.11,Rain-Thunderstorm,Heavy Rain,0,2012-11-11 08:41:00
2:53 AM,54.0,48.0,80,29.71,7.0,NNE,8.1,-,0.12,Rain-Thunderstorm,Light Rain,30,2012-11-11 08:53:00
3:02 AM,53.6,48.2,82,29.76,10.0,North,5.8,-,0.00,Rain,Light Rain,350,2012-11-11 09:02:00
3:53 AM,52.0,41.0,66,29.74,10.0,NNE,9.2,-,0.00,,Overcast,30,2012-11-11 09:53:00
4:53 AM,50.0,43.0,77,29.76,10.0,North,4.6,-,0.00,,Mostly Cloudy,10,2012-11-11 10:53:00
5:53 AM,51.1,43.0,74,29.80,10.0,Calm,Calm,-,0.00,,Overcast,0,2012-11-11 11:53:00
6:53 AM,51.1,46.0,83,29.81,10.0,Calm,Calm,-,N/A,,Overcast,0,2012-11-11 12:53:00
7:53 AM,50.0,43.0,77,29.85,10.0,North,12.7,-,N/A,,Overcast,10,2012-11-11 13:53:00
8:53 AM,46.0,39.9,79,29.91,10.0,North,13.8,23.0,N/A,,Overcast,350,2012-11-11 14:53:00
9:36 AM,44.6,39.2,81,29.98,10.0,NNW,18.4,-,N/A,,Overcast,340,2012-11-11 15:36:00
9:44 AM,44.6,37.4,76,29.97,10.0,NNW,16.1,25.3,N/A,,Overcast,340,2012-11-11 15:44:00
10:53 AM,43.0,33.1,68,29.98,10.0,North,23.0,31.1,N/A,,Mostly Cloudy,360,2012-11-11 16:53:00
12:53 PM,43.0,30.9,62,30.01,10.0,NNW,18.4,26.5,N/A,,Clear,340,2012-11-11 18:53:00
1:53 PM,45.0,30.0,56,30.03,10.0,North,15.0,-,N/A,,Clear,350,2012-11-11 19:53:00
2:53 PM,45.0,28.0,52,30.06,10.0,North,13.8,-,N/A,,Clear,350,2012-11-11 20:53:00
3:53 PM,45.0,27.0,49,30.09,10.0,NNW,15.0,25.3,N/A,,Clear,340,2012-11-11 21:53:00
4:53 PM,43.0,25.0,49,30.14,10.0,North,13.8,25.3,N/A,,Clear,350,2012-11-11 22:53:00
5:53 PM,39.0,25.0,57,30.17,10.0,North,13.8,-,N/A,,Clear,360,2012-11-11 23:53:00
6:53 PM,37.9,23.0,55,30.22,10.0,North,16.1,-,N/A,,Clear,360,2012-11-12 00:53:00
7:53 PM,36.0,21.0,55,30.25,10.0,North,15.0,-,N/A,,Clear,10,2012-11-12 01:53:00
9:53 PM,30.9,21.9,69,30.30,10.0,North,11.5,-,N/A,,Clear,10,2012-11-12 03:53:00
10:53 PM,28.9,21.0,72,30.32,10.0,NNE,10.4,-,N/A,,Clear,20,2012-11-12 04:53:00
11:53 PM,28.9,21.0,72,30.35,10.0,North,5.8,-,N/A,,Clear,10,2012-11-12 05:53:00